WA5GP Weather Reports


Display with metric or nautical units.
time (UTC)temp
F
wind
direction
speed
MPH
gust
MPH
rain 1hr
in
rain 24hr
in
rain mn
in
humidity
%
barometer
mb
20260510033058 77 124 5.0 11.0 0.00 0.00 0.00 63 1000.5
20260510031600 77 133 6.0 11.0 0.00 0.00 0.00 63 1000.5
20260510024601 78 127 4.0 10.0 0.00 0.00 0.00 62 1000.4
20260510023104 78 158 5.0 9.0 0.00 0.00 0.00 61 1000.4
20260510021502 79 139 6.0 10.0 0.00 0.00 0.00 59 1000.2
20260510020051 80 151 6.0 10.0 0.00 0.00 0.00 59 1000.0
20260510014549 80 155 5.0 10.0 0.00 0.00 0.00 59 999.9
20260510013052 80 135 4.0 10.0 0.00 0.00 0.00 58 999.7
20260510011555 82 139 5.0 10.0 0.00 0.00 0.00 57 999.6
20260510010036 83 138 5.0 9.0 0.00 0.00 0.00 55 999.4
20260510004537 85 116 5.0 12.0 0.00 0.00 0.00 53 999.4
20260510003046 85 146 6.0 10.0 0.00 0.00 0.00 53 999.4
20260510001545 86 129 6.0 16.0 0.00 0.00 0.00 52 999.3
20260510000020 87 103 6.0 13.0 0.00 0.00 0.00 51 999.6
20260509234533 87 125 7.0 15.0 0.00 0.00 0.00 50 999.6
20260509233030 88 136 6.0 13.0 0.00 0.00 0.00 49 999.6
20260509231528 88 145 5.0 12.0 0.00 0.00 0.00 48 999.7
20260509230006 88 117 9.0 14.0 0.00 0.00 0.00 47 999.9
20260509224507 89 131 4.0 10.0 0.00 0.00 0.00 46 1000.0
20260509223005 89 174 5.0 11.0 0.00 0.00 0.00 45 1000.1
20260509221608 89 180 5.0 10.0 0.00 0.00 0.00 46 1000.3
20260509220045 89 103 2.0 5.0 0.00 0.00 0.00 46 1000.4
20260509214545 89 162 4.0 10.0 0.00 0.00 0.00 45 1000.6
20260509213047 89 248 1.0 7.0 0.00 0.00 0.00 44 1000.7
20260509211553 89 212 3.0 10.0 0.00 0.00 0.00 47 1000.9
20260509210036 89 216 3.0 6.0 0.00 0.00 0.00 45 1001.1
20260509204537 89 143 4.0 9.0 0.00 0.00 0.00 47 1001.4
20260509203041 89 237 2.0 8.0 0.00 0.00 0.00 47 1001.6
20260509201550 89 143 5.0 9.0 0.00 0.00 0.00 46 1001.7
20260509200030 89 235 1.0 6.0 0.00 0.00 0.00 44 1001.9
20260509194534 88 229 2.0 8.0 0.00 0.00 0.00 44 1002.2
20260509193034 88 78 2.0 5.0 0.00 0.00 0.00 47 1002.3
20260509191533 87 336 2.0 6.0 0.00 0.00 0.00 47 1002.4
20260509190015 86 309 0.0 4.0 0.00 0.00 0.00 50 1002.6
20260509184523 86 148 3.0 7.0 0.00 0.00 0.00 52 1002.8
20260509183025 86 73 1.0 4.0 0.00 0.00 0.00 55 1003.0
20260509181522 84 94 2.0 6.0 0.00 0.00 0.00 53 1003.3
20260509180103 83 90 1.0 6.0 0.00 0.00 0.00 53 1003.6
20260509174603 83 248 2.0 5.0 0.00 0.00 0.00 55 1003.8
20260509173103 82 300 3.0 5.0 0.00 0.00 0.00 56 1003.9
20260509171502 82 271 2.0 4.0 0.00 0.00 0.00 57 1004.2
20260509170044 81 58 0.0 5.0 0.00 0.00 0.00 60 1004.2
20260509164547 80 25 0.0 5.0 0.00 0.00 0.00 62 1004.4
20260509163040 78 227 3.0 7.0 0.00 0.00 0.00 65 1004.5
20260509161536 78 15 1.0 4.0 0.00 0.00 0.00 67 1004.8
20260509160010 76 266 1.0 5.0 0.00 0.00 0.00 69 1004.7
20260509154510 75 307 3.0 6.0 0.00 0.00 0.00 67 1004.8
20260509153015 74 20 0.0 4.0 0.00 0.00 0.00 69 1004.9
20260509151518 73 321 1.0 5.0 0.00 0.00 0.00 70 1004.9
20260509150057 72 347 0.0 4.0 0.00 0.00 0.00 71 1005.0
20260509144554 71 4 1.0 4.0 0.00 0.00 0.00 73 1005.0
20260509143046 69 96 0.0 2.0 0.00 0.00 0.00 77 1005.1
20260509141548 68 105 0.0 1.0 0.00 0.00 0.00 79 1005.1
20260509140035 67 123 0.0 1.0 0.00 0.00 0.00 79 1005.5
20260509134548 66 136 0.0 3.0 0.00 0.00 0.00 81 1005.6
20260509133038 64 120 0.0 1.0 0.00 0.00 0.00 86 1005.5
20260509131549 63 67 0.0 3.0 0.00 0.00 0.00 88 1005.5
20260509130035 62 71 0.0 1.0 0.00 0.00 0.00 89 1005.2
20260509124538 60 28 0.0 1.0 0.00 0.00 0.00 92 1004.9
20260509123044 59 13 0.0 1.0 0.00 0.00 0.00 92 1004.8
20260509121550 59 13 0.0 2.0 0.00 0.00 0.00 92 1004.6
20260509120032 59 13 0.0 1.0 0.00 0.00 0.00 92 1004.2
20260509114542 59 23 0.0 3.0 0.00 0.00 0.00 92 1003.9
20260509113034 59 50 0.0 2.0 0.00 0.00 0.00 91 1003.8
20260509111530 59 356 0.0 2.0 0.00 0.00 0.00 90 1003.4
20260509110019 60 89 0.0 3.0 0.00 0.00 0.00 90 1003.4
20260509104521 60 231 1.0 4.0 0.00 0.00 0.00 90 1003.2
20260509103017 61 152 0.0 1.0 0.00 0.00 0.00 89 1003.5
20260509101531 61 139 0.0 1.0 0.00 0.00 0.00 88 1003.7
20260509100101 62 183 0.0 1.0 0.00 0.00 0.00 87 1003.6
20260509094512 62 235 1.0 7.0 0.00 0.00 0.00 86 1003.4
20260509093010 62 179 2.0 9.0 0.00 0.00 0.00 85 1002.7
20260509091517 63 354 0.0 2.0 0.00 0.00 0.00 82 1001.9
20260509090002 64 307 0.0 0.0 0.00 0.00 0.00 79 1001.4
20260509084511 65 304 0.0 5.0 0.00 0.00 0.00 77 1000.9
20260509083010 67 327 2.0 6.0 0.00 0.00 0.00 72 1000.5
20260509081510 68 257 1.0 5.0 0.00 0.00 0.00 70 1000.8
20260509080059 68 250 2.0 14.0 0.00 0.00 0.00 68 1001.0
20260509074606 67 244 4.0 11.0 0.00 0.00 0.00 68 1000.6
20260509073055 65 147 6.0 11.0 0.00 0.00 0.00 76 1001.9
20260509071547 63 191 8.0 14.0 0.00 0.00 0.00 81 1002.7
20260509070032 62 223 4.0 9.0 0.00 0.00 0.00 86 1004.0
20260509064548 62 240 4.0 10.0 0.00 0.00 0.00 87 1004.6
20260509063041 62 155 2.0 7.0 0.00 0.00 0.00 86 1004.4
20260509061528 63 228 1.0 7.0 0.00 0.00 0.00 83 1005.4
20260509060012 63 134 4.0 10.0 0.00 0.00 0.00 84 1006.2
20260509054517 64 96 7.0 17.0 0.00 0.00 0.00 78 1005.4
20260509053014 64 56 5.0 18.0 0.00 0.00 0.00 77 1006.1
20260509051543 67 61 6.0 16.0 0.00 0.00 0.00 71 1005.6
20260509050018 69 65 1.0 15.0 0.00 0.00 0.00 89 1006.1
20260509044525 68 49 7.0 15.0 0.00 0.00 0.00 89 1005.6
20260509043028 68 322 1.0 7.0 0.00 0.00 0.00 89 1004.1
20260509041531 69 63 0.0 5.0 0.00 0.00 0.00 88 1003.2
20260509040017 69 134 3.0 6.0 0.00 0.00 0.00 88 1002.1
20260509034541 69 190 3.0 7.0 0.00 0.00 0.00 88 1002.0